Location: Brantley
(31.5822°N, 86.2569°W)
Time: 07:35:40
(UTC+00:00)

Transit 2A Rocket - Pass Details

Date: 16 February 2026
Orbit: 583 x 900 km, 66.7° (Epoch: 11 March)

Event Time Altitude Azimuth Distance (km) Brightness Sun altitude
Rises 23:29:52 0° 265° (W) 3,490 10.9 -0.2°
Maximum altitude 23:36:06 10° 314° (NW) 2,579 8.2 -1.5°
Drops below altitude 10° 23:36:06 10° 314° (NW) 2,579 8.2 -1.5°
Sets 23:42:22 0° 2° (N) 3,494 8.3 -2.8°
